Change the Weather History Date:

Tuesday, June 7, 2011

  Actual Average Record
Temperature  
Mean Temperature 73 °F 63 °F  
Max Temperature 84 °F 72 °F 94 °F (1925)
Min Temperature 61 °F 54 °F 40 °F (1958)
Degree Days  
Heating Degree Days 0 4  
Month to date heating degree days 30 33  
Since 1 June heating degree days 30 33  
Since 1 July heating degree days 6694 6667  
Cooling Degree Days 8 2  
Month to date cooling degree days 19 11  
Year to date cooling degree days 70 33  
Since 1 June cooling degree days 19 11  
Growing Degree Days 22 (Base 50)    
Moisture  
Dew Point 55 °F    
Average Humidity 55    
Maximum Humidity 78    
Minimum Humidity 31    
Precipitation  
Precipitation 0.00 in 0.15 in 2.68 in (2013)
Month to date precipitation 1.53 1.09  
Year to date precipitation 24.31 20.32  
Snow  
Snow 0.00 in 0.00 in 0.00 in (2001)
Month to date snowfall 0.0 0.0  
Since 1 June snowfall 0.0 0.0  
Since 1 July snowfall 92.6 64.1  
Snow Depth 0.00 in    
Sea Level Pressure  
Sea Level Pressure 29.91 in    
Wind  
Wind Speed 8 mph (West)    
Max Wind Speed 15 mph    
Max Gust Speed 20 mph    
Visibility 10 miles    
Events      
T = Trace of Precipitation, MM = Missing Value Source: NWS Daily Summary

Daily Weather History Graph

Daily Weather History Graph

Search for Another Location

Airport or City:

Trip Planner

Search our weather history database for the weather conditions in past years. The results will help you decide how hot, cold, wet, or windy it might be!

Date:

Astronomy

Jun. 07, 2011 Rise Set
Actual Time 5:11 AM EDT 8:21 PM EDT
Civil Twilight 4:37 AM EDT 8:55 PM EDT
Nautical Twilight 3:53 AM EDT 9:39 PM EDT
Astronomical Twilight 3:00 AM EDT 10:32 PM EDT
Moon 11:09 AM EDT (6/7) No Moon Set
Length of Visible Light 16h 18m
Length of Day
15h 10m
Waxing Crescent, 34% of the Moon is Illuminated
Jun 7
Waxing Crescent
Jun 8
First Quarter
Jun 15
Full
Jun 23
Last Quarter
Jul 1
New

Hourly Weather History & Observations

Time (EDT) Temp. Heat Index Dew Point Humidity Pressure Visibility Wind Dir Wind Speed Gust Speed Precip Events Conditions
12:54 AM 63.0 °F - 55.9 °F 78% 29.96 in 10.0 mi West 8.1 mph - N/A   Clear
1:54 AM 63.0 °F - 55.9 °F 78% 29.96 in 10.0 mi WNW 9.2 mph - N/A   Clear
2:54 AM 63.0 °F - 55.9 °F 78% 29.95 in 10.0 mi WNW 9.2 mph - N/A   Clear
3:54 AM 62.1 °F - 55.0 °F 78% 29.95 in 10.0 mi WNW 9.2 mph - N/A   Clear
4:54 AM 62.1 °F - 54.0 °F 75% 29.94 in 10.0 mi WNW 9.2 mph - N/A   Clear
5:54 AM 62.1 °F - 55.0 °F 78% 29.95 in 10.0 mi WNW 10.4 mph - N/A   Clear
6:54 AM 64.9 °F - 55.0 °F 70% 29.95 in 10.0 mi WNW 11.5 mph - N/A   Clear
7:54 AM 69.1 °F - 55.0 °F 61% 29.96 in 10.0 mi WNW 9.2 mph - N/A   Clear
8:54 AM 73.0 °F - 57.0 °F 57% 29.96 in 10.0 mi WNW 9.2 mph - N/A   Clear
9:54 AM 75.0 °F - 57.0 °F 53% 29.96 in 10.0 mi WNW 8.1 mph - N/A   Clear
10:54 AM 77.0 °F - 57.0 °F 50% 29.94 in 10.0 mi West 8.1 mph - N/A   Clear
11:54 AM 80.1 °F 80.2 °F 55.9 °F 43% 29.93 in 10.0 mi NW 11.5 mph - N/A   Clear
12:54 PM 80.1 °F - 51.1 °F 36% 29.92 in 10.0 mi West 12.7 mph - N/A   Clear
1:54 PM 81.0 °F - 48.9 °F 33% 29.89 in 10.0 mi Variable 6.9 mph - N/A   Clear
2:54 PM 82.0 °F - 48.9 °F 31% 29.87 in 10.0 mi North 4.6 mph - N/A   Clear
3:54 PM 82.9 °F - 50.0 °F 32% 29.86 in 10.0 mi WNW 10.4 mph - N/A   Clear
4:54 PM 82.9 °F - 52.0 °F 34% 29.86 in 10.0 mi West 8.1 mph - N/A   Clear
5:54 PM 82.9 °F 81.8 °F 53.1 °F 36% 29.86 in 9.0 mi West 4.6 mph - N/A   Clear
6:54 PM 82.0 °F 81.3 °F 54.0 °F 38% 29.85 in 6.0 mi Calm Calm - N/A   Haze
7:54 PM 77.0 °F - 59.0 °F 54% 29.86 in 10.0 mi Calm Calm - N/A   Clear
8:54 PM 77.0 °F - 55.0 °F 47% 29.87 in 10.0 mi South 3.5 mph - N/A   Partly Cloudy
9:54 PM 71.1 °F - 60.1 °F 68% 29.88 in 10.0 mi SW 5.8 mph - N/A   Clear
10:54 PM 70.0 °F - 60.1 °F 71% 29.88 in 10.0 mi SW 6.9 mph - N/A   Mostly Cloudy
11:54 PM 70.0 °F - 59.0 °F 68% 29.87 in 10.0 mi West 8.1 mph - N/A   Clear